Time,TemperatureF,DewpointF,PressureIn,WindDirection,WindDirectionDegrees,WindSpeedMPH,WindSpeedGustMPH,Humidity,HourlyPrecipIn,Conditions,Clouds,dailyrainin,SolarRadiationWatts/m^2,SoftwareType,DateUTC
2013-01-03 00:29:00,7.9,-2.1,30.11,WNW,300,2.0,12.0,63,0.00,CLR,,0.00,0.0,WeatherDisplay:10.37,2013-01-03 05:29:00,
2013-01-03 00:59:00,7.3,-2.7,30.11,WNW,299,1.0,12.0,63,0.00,CLR,,0.00,0.0,WeatherDisplay:10.37,2013-01-03 05:59:00,
2013-01-03 01:29:00,6.6,-3.7,30.12,West,273,3.0,10.0,62,0.00,CLR,,0.00,0.0,WeatherDisplay:10.37,2013-01-03 06:29:00,
2013-01-03 01:59:00,6.3,-3.9,30.12,West,264,2.0,9.0,62,0.00,CLR,,0.00,0.0,WeatherDisplay:10.37,2013-01-03 06:59:00,
2013-01-03 02:29:00,6.1,-4.1,30.12,West,278,0.0,10.0,62,0.00,CLR,,0.00,0.0,WeatherDisplay:10.37,2013-01-03 07:29:00,
2013-01-03 02:59:00,5.8,-4.1,30.12,WNW,288,2.0,7.0,63,0.00,CLR,,0.00,0.0,WeatherDisplay:10.37,2013-01-03 07:59:00,
2013-01-03 03:29:00,5.6,-4.0,30.12,WNW,282,0.0,8.0,64,0.00,CLR,,0.00,0.0,WeatherDisplay:10.37,2013-01-03 08:29:00,
2013-01-03 03:59:00,5.4,-4.2,30.12,West,266,1.0,8.0,64,0.00,CLR,,0.00,0.0,WeatherDisplay:10.37,2013-01-03 08:59:00,
2013-01-03 04:29:00,5.0,-4.2,30.11,WNW,289,1.0,9.0,65,0.00,CLR,,0.00,0.0,WeatherDisplay:10.37,2013-01-03 09:29:00,
2013-01-03 04:59:00,4.7,-4.5,30.11,WNW,297,0.0,8.0,65,0.00,CLR,,0.00,0.0,WeatherDisplay:10.37,2013-01-03 09:59:00,
2013-01-03 05:29:00,4.5,-4.7,30.11,WNW,290,1.0,7.0,65,0.00,CLR,,0.00,0.0,WeatherDisplay:10.37,2013-01-03 10:29:00,
2013-01-03 05:59:00,4.2,-4.7,30.11,WNW,292,0.0,5.0,66,0.00,CLR,,0.00,0.0,WeatherDisplay:10.37,2013-01-03 10:59:00,
2013-01-03 06:29:00,4.2,-4.3,30.11,NW,306,0.0,6.0,67,0.00,CLR,,0.00,0.0,WeatherDisplay:10.37,2013-01-03 11:29:00,
2013-01-03 06:59:00,4.2,-4.3,30.11,NW,307,0.0,7.0,67,0.00,OVC,,0.00,0.0,WeatherDisplay:10.37,2013-01-03 11:59:00,
2013-01-03 07:29:00,3.8,-4.1,30.12,NW,304,0.0,2.0,69,0.00,BKN,,0.00,9.0,WeatherDisplay:10.37,2013-01-03 12:29:00,
2013-01-03 07:59:00,4.1,-3.5,30.12,NW,305,0.0,1.0,70,0.00,FEW,,0.00,60.0,WeatherDisplay:10.37,2013-01-03 12:59:00,
2013-01-03 08:29:00,5.4,-2.3,30.12,West,276,0.0,4.0,70,0.00,CLR,,0.00,160.0,WeatherDisplay:10.37,2013-01-03 13:29:00,
2013-01-03 08:59:00,7.3,-1.7,30.12,West,259,3.0,6.0,66,0.00,CLR,,0.00,227.0,WeatherDisplay:10.37,2013-01-03 13:59:00,
2013-01-03 09:29:00,9.3,-0.7,30.11,WNW,284,1.0,6.0,63,0.00,CLR,,0.00,287.0,WeatherDisplay:10.37,2013-01-03 14:29:00,
2013-01-03 09:59:00,11.3,0.1,30.12,NW,314,1.0,7.0,60,0.00,CLR,,0.00,339.0,WeatherDisplay:10.37,2013-01-03 14:59:00,
2013-01-03 10:29:00,12.3,-0.1,30.11,West,261,3.0,6.0,57,0.00,CLR,,0.00,380.0,WeatherDisplay:10.37,2013-01-03 15:29:00,
2013-01-03 10:59:00,13.9,1.4,30.09,WSW,258,1.0,7.0,57,0.00,CLR,,0.00,410.0,WeatherDisplay:10.37,2013-01-03 15:59:00,
2013-01-03 11:29:00,14.8,1.1,30.09,West,271,3.0,12.0,54,0.00,CLR,,0.00,427.0,WeatherDisplay:10.37,2013-01-03 16:29:00,
2013-01-03 11:59:00,16.4,2.2,30.08,West,275,2.0,8.0,53,0.00,CLR,,0.00,431.0,WeatherDisplay:10.37,2013-01-03 16:59:00,
2013-01-03 12:29:00,17.7,3.0,30.07,SSW,210,1.0,6.0,52,0.00,CLR,,0.00,424.0,WeatherDisplay:10.37,2013-01-03 17:29:00,
2013-01-03 12:59:00,19.0,3.4,30.05,West,270,3.0,10.0,50,0.00,CLR,,0.00,316.0,WeatherDisplay:10.37,2013-01-03 17:59:00,
2013-01-03 13:29:00,19.9,2.9,30.03,WSW,256,2.0,8.0,47,0.00,CLR,,0.00,371.0,WeatherDisplay:10.37,2013-01-03 18:29:00,
2013-01-03 13:59:00,21.2,3.6,30.02,WSW,246,1.0,8.0,46,0.00,CLR,,0.00,176.0,WeatherDisplay:10.37,2013-01-03 18:59:00,
2013-01-03 14:59:00,22.5,3.8,30.02,NW,304,2.0,10.0,44,0.00,BKN,,0.00,26.0,WeatherDisplay:10.37,2013-01-03 19:59:00,
2013-01-03 15:29:00,22.1,3.0,30.02,NNW,328,1.0,8.0,43,0.00,BKN,,0.00,21.0,WeatherDisplay:10.37,2013-01-03 20:29:00,
2013-01-03 15:59:00,21.1,4.0,30.02,NW,313,0.0,6.0,47,0.00,BKN,,0.00,12.0,WeatherDisplay:10.37,2013-01-03 20:59:00,
2013-01-03 16:29:00,20.1,3.1,30.02,West,281,0.0,2.0,47,0.00,OVC,,0.00,0.0,WeatherDisplay:10.37,2013-01-03 21:29:00,
2013-01-03 16:59:00,18.6,7.0,30.02,West,281,0.0,1.0,60,0.00,CLR,,0.00,0.0,WeatherDisplay:10.37,2013-01-03 21:59:00,
2013-01-03 17:29:00,16.8,6.0,30.02,West,281,0.0,0.0,62,0.00,CLR,,0.00,0.0,WeatherDisplay:10.37,2013-01-03 22:29:00,
2013-01-03 17:59:00,15.3,6.6,30.03,West,281,0.0,0.0,68,0.00,CLR,,0.00,0.0,WeatherDisplay:10.37,2013-01-03 22:59:00,
2013-01-03 18:29:00,13.9,5.3,30.03,West,281,0.0,1.0,68,0.00,CLR,,0.00,0.0,WeatherDisplay:10.37,2013-01-03 23:29:00,
2013-01-03 18:59:00,12.7,4.8,30.04,West,281,0.0,0.0,70,0.00,CLR,,0.00,0.0,WeatherDisplay:10.37,2013-01-03 23:59:00,
2013-01-03 19:29:00,12.2,5.5,30.04,West,281,0.0,0.0,74,0.00,CLR,,0.00,0.0,WeatherDisplay:10.37,2013-01-04 00:29:00,
2013-01-03 19:59:00,13.2,7.3,30.03,West,281,0.0,0.0,77,0.00,CLR,,0.00,0.0,WeatherDisplay:10.37,2013-01-04 00:59:00,
2013-01-03 20:29:00,14.3,9.0,30.03,West,281,0.0,0.0,79,0.00,CLR,,0.00,0.0,WeatherDisplay:10.37,2013-01-04 01:29:00,
2013-01-03 21:00:00,14.3,9.3,30.04,WNW,282,0.0,0.0,80,0.00,CLR,,0.00,0.0,WeatherDisplay:10.37,2013-01-04 02:00:00,
2013-01-03 21:30:00,13.4,8.4,30.03,West,281,0.0,1.0,80,0.00,CLR,,0.00,0.0,WeatherDisplay:10.37,2013-01-04 02:30:00,
2013-01-03 22:00:00,13.1,8.7,30.03,West,281,0.0,0.0,82,0.00,CLR,,0.00,0.0,WeatherDisplay:10.37,2013-01-04 03:00:00,
2013-01-03 22:30:00,13.2,8.7,30.03,West,281,0.0,0.0,82,0.00,CLR,,0.00,0.0,WeatherDisplay:10.37,2013-01-04 03:30:00,
2013-01-03 23:00:00,12.7,8.5,30.02,West,281,0.0,0.0,83,0.00,CLR,,0.00,0.0,WeatherDisplay:10.37,2013-01-04 04:00:00,
2013-01-03 23:30:00,11.9,8.0,30.00,West,281,0.0,0.0,84,0.00,CLR,,0.00,0.0,WeatherDisplay:10.37,2013-01-04 04:30:00,